TimePST,TemperatureF,Dew PointF,Humidity,Sea Level PressureIn,VisibilityMPH,Wind Direction,Wind SpeedMPH,Gust SpeedMPH,PrecipitationIn,Events,Conditions,WindDirDegrees,DateUTC
12:32 AM,26.6,24.8,93,30.69,9.0,Calm,Calm,-,N/A,,Mostly Cloudy,0,2013-01-16 08:32:00
12:53 AM,28.9,27.0,92,30.71,10.0,Calm,Calm,-,N/A,,Overcast,0,2013-01-16 08:53:00
1:53 AM,30.0,28.0,92,30.72,8.0,Calm,Calm,-,N/A,,Overcast,0,2013-01-16 09:53:00
2:53 AM,30.0,28.0,92,30.72,9.0,NNE,3.5,-,N/A,,Overcast,30,2013-01-16 10:53:00
3:53 AM,30.9,28.9,92,30.71,10.0,Calm,Calm,-,N/A,,Overcast,0,2013-01-16 11:53:00
4:53 AM,30.9,28.9,92,30.70,9.0,Calm,Calm,-,N/A,,Overcast,0,2013-01-16 12:53:00
5:53 AM,30.9,28.9,92,30.69,10.0,Calm,Calm,-,N/A,,Overcast,0,2013-01-16 13:53:00
6:53 AM,30.9,28.9,92,30.67,10.0,Calm,Calm,-,N/A,,Overcast,0,2013-01-16 14:53:00
7:18 AM,30.2,28.4,93,30.64,10.0,Calm,Calm,-,N/A,,Partly Cloudy,0,2013-01-16 15:18:00
7:35 AM,30.2,28.4,93,30.64,10.0,Calm,Calm,-,N/A,,Mostly Cloudy,0,2013-01-16 15:35:00
7:53 AM,30.0,28.0,92,30.68,10.0,Calm,Calm,-,N/A,,Scattered Clouds,0,2013-01-16 15:53:00
8:00 AM,30.2,28.4,93,30.65,8.0,Calm,Calm,-,N/A,,Mostly Cloudy,0,2013-01-16 16:00:00
8:07 AM,30.2,28.4,93,30.65,8.0,Calm,Calm,-,N/A,,Scattered Clouds,0,2013-01-16 16:07:00
8:53 AM,30.0,28.0,92,30.68,10.0,Calm,Calm,-,N/A,,Scattered Clouds,0,2013-01-16 16:53:00
9:53 AM,33.1,28.9,85,30.68,10.0,Calm,Calm,-,N/A,,Partly Cloudy,0,2013-01-16 17:53:00
10:53 AM,37.9,30.0,73,30.68,10.0,North,4.6,-,N/A,,Partly Cloudy,360,2013-01-16 18:53:00
11:53 AM,39.0,30.9,73,30.66,10.0,NNE,6.9,-,N/A,,Partly Cloudy,20,2013-01-16 19:53:00
12:53 PM,39.9,30.0,68,30.64,10.0,NE,5.8,-,N/A,,Partly Cloudy,40,2013-01-16 20:53:00
1:53 PM,41.0,30.9,67,30.62,10.0,North,4.6,-,N/A,,Clear,360,2013-01-16 21:53:00
2:53 PM,41.0,30.0,65,30.62,10.0,North,3.5,-,N/A,,Clear,350,2013-01-16 22:53:00
3:53 PM,39.0,30.0,70,30.61,10.0,North,4.6,-,N/A,,Clear,350,2013-01-16 23:53:00
4:53 PM,34.0,30.0,85,30.62,10.0,NW,3.5,-,N/A,,Clear,310,2013-01-17 00:53:00
5:53 PM,32.0,28.9,88,30.61,10.0,Calm,Calm,-,N/A,,Clear,0,2013-01-17 01:53:00
6:53 PM,30.9,28.9,92,30.60,10.0,Calm,Calm,-,N/A,,Clear,0,2013-01-17 02:53:00
7:53 PM,28.9,27.0,92,30.59,9.0,Calm,Calm,-,N/A,,Clear,0,2013-01-17 03:53:00
8:53 PM,28.9,28.0,96,30.58,7.0,Calm,Calm,-,N/A,,Clear,0,2013-01-17 04:53:00
9:53 PM,28.9,26.1,89,30.58,10.0,Calm,Calm,-,N/A,,Clear,0,2013-01-17 05:53:00
10:53 PM,28.0,27.0,96,30.57,7.0,Calm,Calm,-,N/A,,Clear,0,2013-01-17 06:53:00
11:53 PM,28.0,27.0,96,30.57,9.0,North,4.6,-,N/A,,Clear,10,2013-01-17 07:53:00